Home   Weather   Qaanaaq   Past weeks

Flag for Greenland Past Weather in Qaanaaq, Greenland — Yesterday and Last 2 Weeks

Now
-6 °F

Sunny.


Feels Like: -30 °F
Forecast: -24 / -14 °F
Wind: 21 mph from Southeast

Location: Thule A. B.

Current Time: Dec 10, 2016 at 4:06:49 am

Latest Report: Dec 10, 2016 at 2:58 am


Visibility: N/A

Pressure: 29.68 "Hg

Humidity: 64%

Dew Point: -15 °F

Location of QaanaaqLocation

Past Weather in Qaanaaq — Graph

°F

Qaanaaq Temperature Yesterday

Maximum temperature yesterday: 0 °F (at 9:58 am)
Minimum temperature yesterday: -9 °F (at 11:58 pm)
Average temperature yesterday: -3 °F

High & Low Weather Summary for the Past Weeks

 TemperatureHumidityPressure
High14 °F (Dec 2, 9:58 am)92% (Dec 5, 1:58 am)30.22 "Hg (Dec 5, 1:58 am)
Low-18 °F (Dec 6, 8:58 pm)53% (Dec 7, 10:58 pm)29.42 "Hg (Dec 8, 2:58 am)
Average-3 °F73%29.88 "Hg
* Reported Nov 25 2:58 am — Dec 10 2:58 am, Qaanaaq, Weather by CustomWeather, © 2016

Note: Actual official high and low records may vary slightly from our data, if they occured in-between our weather recording intervals... More about our weather records

Advertising

Qaanaaq Weather History for the Previous 24 Hours

Scroll right to see more
 ConditionsComfort  
Time TempWeatherWind HumidityBarometerVisibility
2:58 am
Sat, Dec 10
-6 °FSunny.21 mph64%29.68 "HgN/A
1:58 am-8 °FClear.17 mph68%29.66 "HgN/A
12:58 am-6 °FClear.20 mph70%29.64 "HgN/A
11:58 pm
Fri, Dec 9
-9 °FPassing clouds.12 mph77%29.65 "HgN/A
10:58 pm-6 °FPassing clouds.15 mph70%29.62 "HgN/A
9:58 pm-2 °FPassing clouds.16 mph65%29.61 "HgN/A
8:58 pm-4 °FSunny.13 mph77%29.60 "HgN/A
7:58 pm-2 °FScattered clouds.17 mph77%29.58 "HgN/A
7:03 pm-2 °FLow clouds.24 mph77%29.59 "Hg2 mi
5:58 pm-2 °FScattered clouds.29 mph77%29.54 "Hg1 mi
4:58 pm-2 °FSunny.18 mph77%29.53 "HgN/A
3:58 pm-1 °FSunny.16 mph79%29.52 "Hg3 mi
2:58 pm-2 °FSunny.23 mph77%29.51 "Hg4 mi
1:58 pm0 °FSunny.23 mph78%29.50 "Hg2 mi
12:58 pm0 °FSunny.26 mph78%29.50 "Hg3 mi
11:58 am0 °FScattered clouds.25 mph78%29.49 "Hg3 mi
11:53 am0 °FPartly sunny.21 mph78%29.52 "Hg3 mi
10:58 am-2 °FPassing clouds.15 mph71%29.49 "HgN/A
9:58 am0 °FScattered clouds.17 mph71%29.49 "HgN/A
8:58 am-4 °FSunny.13 mph77%29.49 "HgN/A
7:58 am-2 °FPassing clouds.12 mph77%29.49 "Hg6 mi
6:58 am-2 °FPassing clouds.10 mph71%29.49 "HgN/A
5:58 am-2 °FOvercast.No wind71%29.49 "HgN/A
4:58 am-6 °FPassing clouds.9 mph64%29.49 "HgN/A
Weather by CustomWeather, © 2016

See weather overviewHow to use our weather pages